When you browse on this site, cookies collect data to enhance your experience and personalize the content and advertising you see.
Visit our Privacy Policy to learn more. By continuing to use the site, you agree to this use of cookies and data.

Stündliche Wetter Çaykara

Heute, 13 Juli, Montag

Zeit Temperatur Niederschläge Wind Luftdruck Luftfeuchtigkeit
00:00 +15°C° 0 mm 1 m/S 627 mmHg 90%
01:00 +15°C° 0.1 mm 1 m/S 627 mmHg 90%
02:00 +14°C° 0.1 mm 1 m/S 627 mmHg 90%
03:00 +14°C° 0.1 mm 1 m/S 627 mmHg 90%
04:00 +14°C° 0.2 mm 1 m/S 627 mmHg 90%
05:00 +14°C° 0.2 mm 1 m/S 627 mmHg 90%
06:00 +14°C° 0.2 mm 1 m/S 627 mmHg 90%
07:00 +15°C° 0.2 mm 1 m/S 627 mmHg 88%
08:00 +16°C° 0.2 mm 1 m/S 627 mmHg 85%
09:00 +17°C° 0.2 mm 2 m/S 628 mmHg 83%
10:00 +17°C° 1 mm 2 m/S 628 mmHg 83%
11:00 +17°C° 1 mm 2 m/S 627 mmHg 83%
12:00 +17°C° 1 mm 2 m/S 627 mmHg 83%
13:00 +17°C° 1.1 mm 3 m/S 627 mmHg 83%
14:00 +18°C° 1.1 mm 3 m/S 627 mmHg 84%
15:00 +18°C° 1.1 mm 4 m/S 627 mmHg 84%
16:00 +17°C° 0.8 mm 3 m/S 627 mmHg 86%
17:00 +16°C° 0.8 mm 3 m/S 627 mmHg 88%
18:00 +16°C° 0.8 mm 3 m/S 627 mmHg 90%
19:00 +15°C° 0.3 mm 2 m/S 627 mmHg 90%
20:00 +15°C° 0.3 mm 2 m/S 627 mmHg 91%
21:00 +14°C° 0.3 mm 2 m/S 628 mmHg 91%
22:00 +14°C° 0 mm 2 m/S 628 mmHg 90%
23:00 +14°C° 0 mm 2 m/S 628 mmHg 89%

Morgen, 14 Juli, Dienstag

Zeit Temperatur Niederschläge Wind Luftdruck Luftfeuchtigkeit
00:00 +14°C° 0 mm 1 m/S 628 mmHg 89%
01:00 +14°C° 0 mm 1 m/S 628 mmHg 88%
02:00 +13°C° 0 mm 1 m/S 628 mmHg 88%
03:00 +13°C° 0 mm 1 m/S 628 mmHg 87%
04:00 +13°C° 0 mm 1 m/S 628 mmHg 87%
05:00 +13°C° 0 mm 1 m/S 629 mmHg 87%
06:00 +13°C° 0 mm 1 m/S 629 mmHg 87%
07:00 +14°C° 0 mm 1 m/S 629 mmHg 83%
08:00 +16°C° 0 mm 2 m/S 630 mmHg 79%
09:00 +17°C° 0 mm 2 m/S 631 mmHg 74%
10:00 +17°C° 0.2 mm 2 m/S 631 mmHg 77%
11:00 +17°C° 0.2 mm 3 m/S 631 mmHg 80%
12:00 +17°C° 0.2 mm 3 m/S 631 mmHg 83%
13:00 +17°C° 0.5 mm 3 m/S 631 mmHg 84%
14:00 +17°C° 0.5 mm 3 m/S 630 mmHg 85%
15:00 +17°C° 0.5 mm 3 m/S 630 mmHg 87%
16:00 +16°C° 0.3 mm 3 m/S 630 mmHg 88%
17:00 +16°C° 0.3 mm 3 m/S 630 mmHg 89%
18:00 +15°C° 0.3 mm 2 m/S 630 mmHg 90%
19:00 +15°C° 0.2 mm 2 m/S 631 mmHg 91%
20:00 +14°C° 0.2 mm 2 m/S 631 mmHg 91%
21:00 +14°C° 0.2 mm 1 m/S 631 mmHg 92%
22:00 +14°C° 0.1 mm 1 m/S 631 mmHg 92%
23:00 +14°C° 0.1 mm 1 m/S 631 mmHg 92%

übermorgen, 15 Juli, Mittwoch

Zeit Temperatur Niederschläge Wind Luftdruck Luftfeuchtigkeit
00:00 +13°C° 0.1 mm 1 m/S 631 mmHg 92%
01:00 +13°C° 0.1 mm 1 m/S 631 mmHg 92%
02:00 +13°C° 0.1 mm 1 m/S 631 mmHg 92%
03:00 +13°C° 0.1 mm 1 m/S 631 mmHg 91%
04:00 +13°C° 0.1 mm 1 m/S 631 mmHg 90%
05:00 +13°C° 0.1 mm 1 m/S 631 mmHg 90%
06:00 +13°C° 0.1 mm 1 m/S 632 mmHg 89%
07:00 +14°C° 0 mm 1 m/S 632 mmHg 86%
08:00 +15°C° 0 mm 1 m/S 632 mmHg 84%
09:00 +17°C° 0 mm 2 m/S 632 mmHg 81%
10:00 +17°C° 0 mm 2 m/S 632 mmHg 79%
11:00 +17°C° 0 mm 2 m/S 632 mmHg 78%
12:00 +18°C° 0 mm 2 m/S 632 mmHg 76%
13:00 +18°C° 0 mm 2 m/S 632 mmHg 76%
14:00 +18°C° 0 mm 2 m/S 632 mmHg 75%
15:00 +18°C° 0 mm 2 m/S 632 mmHg 75%
16:00 +18°C° 0 mm 2 m/S 631 mmHg 77%
17:00 +17°C° 0 mm 2 m/S 631 mmHg 79%
18:00 +16°C° 0 mm 1 m/S 631 mmHg 82%
19:00 +16°C° 0 mm 1 m/S 631 mmHg 83%
20:00 +15°C° 0 mm 1 m/S 631 mmHg 85%
21:00 +14°C° 0 mm 1 m/S 631 mmHg 86%
22:00 +14°C° 0 mm 1 m/S 631 mmHg 85%
23:00 +13°C° 0 mm 1 m/S 630 mmHg 83%

16 Juli, Donnerstag

Zeit Temperatur Niederschläge Wind Luftdruck Luftfeuchtigkeit
00:00 +13°C° 0 mm 2 m/S 630 mmHg 82%
01:00 +13°C° 0 mm 1 m/S 630 mmHg 77%
02:00 +12°C° 0 mm 1 m/S 630 mmHg 72%
03:00 +12°C° 0 mm 1 m/S 630 mmHg 67%
04:00 +12°C° 0 mm 1 m/S 630 mmHg 64%
05:00 +13°C° 0 mm 1 m/S 630 mmHg 61%
06:00 +13°C° 0 mm 1 m/S 629 mmHg 58%
07:00 +15°C° 0 mm 1 m/S 630 mmHg 56%
08:00 +18°C° 0 mm 1 m/S 630 mmHg 53%
09:00 +19°C° 0 mm 1 m/S 631 mmHg 51%
10:00 +19°C° 0 mm 2 m/S 631 mmHg 53%
11:00 +20°C° 0 mm 2 m/S 631 mmHg 55%
12:00 +20°C° 0 mm 2 m/S 631 mmHg 58%
13:00 +20°C° 0 mm 2 m/S 630 mmHg 62%
14:00 +20°C° 0 mm 2 m/S 630 mmHg 66%
15:00 +20°C° 0 mm 3 m/S 630 mmHg 70%
16:00 +19°C° 0 mm 2 m/S 629 mmHg 73%
17:00 +18°C° 0 mm 2 m/S 629 mmHg 76%
18:00 +17°C° 0 mm 2 m/S 628 mmHg 80%
19:00 +16°C° 0 mm 2 m/S 628 mmHg 80%
20:00 +15°C° 0 mm 2 m/S 628 mmHg 81%
21:00 +14°C° 0 mm 1 m/S 628 mmHg 82%
22:00 +14°C° 0 mm 1 m/S 628 mmHg 77%
23:00 +13°C° 0 mm 1 m/S 628 mmHg 72%

17 Juli, Freitag

Zeit Temperatur Niederschläge Wind Luftdruck Luftfeuchtigkeit
00:00 +13°C° 0 mm 1 m/S 627 mmHg 67%
01:00 +13°C° 0 mm 1 m/S 627 mmHg 66%
02:00 +13°C° 0 mm 1 m/S 627 mmHg 65%
03:00 +12°C° 0 mm 1 m/S 627 mmHg 65%
04:00 +13°C° 0 mm 1 m/S 627 mmHg 67%
05:00 +13°C° 0 mm 1 m/S 627 mmHg 69%
06:00 +13°C° 0 mm 1 m/S 627 mmHg 72%
07:00 +15°C° 0 mm 1 m/S 627 mmHg 70%
08:00 +16°C° 0 mm 1 m/S 628 mmHg 68%
09:00 +19°C° 0 mm 1 m/S 629 mmHg 66%
10:00 +18°C° 0.1 mm 2 m/S 628 mmHg 67%
11:00 +19°C° 0.1 mm 2 m/S 628 mmHg 68%
12:00 +19°C° 0.1 mm 3 m/S 628 mmHg 69%
13:00 +19°C° 0.1 mm 2 m/S 628 mmHg 71%
14:00 +19°C° 0.1 mm 2 m/S 628 mmHg 74%
15:00 +19°C° 0.1 mm 2 m/S 628 mmHg 76%
16:00 +18°C° 0 mm 2 m/S 628 mmHg 78%
17:00 +18°C° 0 mm 2 m/S 628 mmHg 80%
18:00 +17°C° 0 mm 2 m/S 628 mmHg 82%
19:00 +16°C° 0 mm 2 m/S 628 mmHg 82%
20:00 +15°C° 0 mm 1 m/S 628 mmHg 83%
21:00 +14°C° 0 mm 1 m/S 628 mmHg 83%
22:00 +14°C° 0 mm 1 m/S 627 mmHg 78%
23:00 +13°C° 0 mm 1 m/S 627 mmHg 74%

18 Juli, Samstag

Zeit Temperatur Niederschläge Wind Luftdruck Luftfeuchtigkeit
00:00 +13°C° 0 mm 1 m/S 627 mmHg 69%
01:00 +13°C° 0 mm 1 m/S 627 mmHg 68%
02:00 +13°C° 0 mm 1 m/S 627 mmHg 67%
03:00 +13°C° 0 mm 1 m/S 627 mmHg 66%
04:00 +13°C° 0 mm 1 m/S 627 mmHg 67%
05:00 +14°C° 0 mm 1 m/S 627 mmHg 69%
06:00 +14°C° 0 mm 1 m/S 628 mmHg 70%
07:00 +16°C° 0 mm 1 m/S 628 mmHg 68%
08:00 +19°C° 0 mm 1 m/S 629 mmHg 65%
09:00 +20°C° 0 mm 1 m/S 629 mmHg 62%
10:00 +20°C° 0 mm 2 m/S 629 mmHg 62%
11:00 +21°C° 0 mm 2 m/S 629 mmHg 61%
12:00 +23°C° 0 mm 2 m/S 630 mmHg 60%
13:00 +23°C° 0.1 mm 2 m/S 629 mmHg 60%
14:00 +23°C° 0.1 mm 2 m/S 629 mmHg 61%
15:00 +23°C° 0.1 mm 2 m/S 629 mmHg 61%
16:00 +23°C° 0 mm 2 m/S 629 mmHg 65%
17:00 +21°C° 0 mm 2 m/S 629 mmHg 69%
18:00 +21°C° 0 mm 1 m/S 629 mmHg 74%
19:00 +20°C° 0 mm 1 m/S 629 mmHg 75%
20:00 +19°C° 0 mm 1 m/S 629 mmHg 75%
21:00 +18°C° 0 mm 1 m/S 629 mmHg 76%
22:00 +16°C° 0 mm 1 m/S 629 mmHg 73%
23:00 +16°C° 0 mm 1 m/S 629 mmHg 69%
Mehr zeigen